Wetterdaten: Woche 25.12.17 - 31.12.17 (KW52)
Datum Zeit Temp. I. Temp. A. Feuchte I. Feuchte A. Luftdruck Regen Wind Richtung Sonnenschein UV Solar Taupunkt Windchill Windben
25.12.2017 00:00 22,7 C 4,0 C 61 % 95 % 1024,7 hPa 0,0 l/m 7,0 km/h (2 Bft) W-SW 0,00 h 0,0 UV-I 0 W/m 3,2 C 2,7 C 12,6 km/h (3 Bft)
25.12.2017 01:00 22,5 C 3,8 C 62 % 95 % 1024,4 hPa 0,0 l/m 1,8 km/h (1 Bft) SW 0,00 h 0,0 UV-I 0 W/m 3,1 C 3,8 C 4,5 km/h (1 Bft)
25.12.2017 02:00 22,4 C 3,7 C 63 % 95 % 1024,0 hPa 0,0 l/m 3,5 km/h (1 Bft) SW 0,00 h 0,0 UV-I 0 W/m 3,0 C 3,6 C 7,3 km/h (2 Bft)
25.12.2017 03:00 22,4 C 3,6 C 63 % 96 % 1023,7 hPa 0,0 l/m 5,2 km/h (1 Bft) SW 0,00 h 0,0 UV-I 0 W/m 3,0 C 3,0 C 10,3 km/h (2 Bft)
25.12.2017 04:00 22,4 C 3,3 C 64 % 96 % 1023,6 hPa 0,0 l/m 7,2 km/h (2 Bft) SW 0,00 h 0,0 UV-I 0 W/m 2,7 C 1,9 C 13,5 km/h (3 Bft)
25.12.2017 05:00 22,4 C 3,1 C 64 % 97 % 1023,3 hPa 0,0 l/m 5,2 km/h (1 Bft) S-SW 0,00 h 0,0 UV-I 0 W/m 2,7 C 2,8 C 10,1 km/h (2 Bft)
25.12.2017 06:00 22,6 C 2,7 C 63 % 97 % 1022,8 hPa 0,0 l/m 9,7 km/h (2 Bft) SW 0,00 h 0,0 UV-I 0 W/m 2,3 C -0,1 C 16,4 km/h (3 Bft)
25.12.2017 07:00 22,6 C 2,5 C 63 % 96 % 1022,8 hPa 0,0 l/m 8,5 km/h (2 Bft) SW 0,00 h 0,0 UV-I 0 W/m 1,9 C 0,4 C 14,8 km/h (3 Bft)
25.12.2017 08:00 22,7 C 2,4 C 63 % 96 % 1023,0 hPa 0,0 l/m 7,4 km/h (2 Bft) W-SW 0,00 h 0,0 UV-I 5 W/m 1,9 C 1,0 C 13,4 km/h (3 Bft)
25.12.2017 09:00 22,7 C 2,5 C 63 % 96 % 1022,9 hPa 0,0 l/m 3,3 km/h (1 Bft) W-SW 0,00 h 0,0 UV-I 8 W/m 1,9 C 2,3 C 7,6 km/h (2 Bft)
25.12.2017 10:00 22,6 C 2,6 C 63 % 96 % 1022,7 hPa 0,0 l/m 4,3 km/h (1 Bft) SW 0,00 h 0,0 UV-I 19 W/m 2,0 C 2,3 C 8,7 km/h (2 Bft)
25.12.2017 11:00 22,6 C 2,5 C 61 % 96 % 1022,2 hPa 0,0 l/m 5,8 km/h (2 Bft) S-SW 0,00 h 0,0 UV-I 33 W/m 1,9 C 1,7 C 10,0 km/h (2 Bft)
25.12.2017 12:00 22,6 C 2,5 C 61 % 95 % 1021,2 hPa 0,0 l/m 5,0 km/h (1 Bft) S 0,00 h 0,0 UV-I 35 W/m 1,8 C 2,1 C 9,3 km/h (2 Bft)
25.12.2017 13:00 22,6 C 2,4 C 60 % 95 % 1020,4 hPa 0,0 l/m 4,6 km/h (1 Bft) S 0,00 h 0,0 UV-I 34 W/m 1,6 C 2,0 C 9,2 km/h (2 Bft)
25.12.2017 14:00 22,5 C 2,1 C 60 % 94 % 1019,8 hPa 0,0 l/m 6,0 km/h (2 Bft) S 0,00 h 0,0 UV-I 26 W/m 1,3 C 1,1 C 10,7 km/h (2 Bft)
25.12.2017 15:00 22,4 C 1,5 C 59 % 95 % 1019,5 hPa 0,0 l/m 7,3 km/h (2 Bft) S 0,00 h 0,0 UV-I 11 W/m 0,8 C 0,1 C 12,0 km/h (2 Bft)
25.12.2017 16:00 22,3 C 0,9 C 60 % 96 % 1018,9 hPa 0,0 l/m 5,9 km/h (2 Bft) S 0,00 h 0,0 UV-I 0 W/m 0,3 C 0,3 C 10,2 km/h (2 Bft)
25.12.2017 17:00 22,3 C 0,5 C 60 % 96 % 1018,6 hPa 0,0 l/m 5,9 km/h (2 Bft) S 0,00 h 0,0 UV-I 0 W/m -0,0 C -0,1 C 10,0 km/h (2 Bft)
25.12.2017 18:00 22,2 C 0,6 C 60 % 96 % 1018,1 hPa 0,0 l/m 4,8 km/h (1 Bft) S 0,00 h 0,0 UV-I 0 W/m 0,1 C 0,2 C 9,0 km/h (2 Bft)
25.12.2017 19:00 22,2 C 0,5 C 60 % 97 % 1017,5 hPa 0,0 l/m 4,2 km/h (1 Bft) S 0,00 h 0,0 UV-I 0 W/m 0,1 C 0,3 C 8,1 km/h (2 Bft)
25.12.2017 20:00 22,5 C 0,3 C 60 % 97 % 1016,9 hPa 0,0 l/m 6,4 km/h (2 Bft) S 0,00 h 0,0 UV-I 0 W/m -0,2 C -0,9 C 10,4 km/h (2 Bft)
25.12.2017 21:00 22,5 C 0,0 C 60 % 97 % 1016,4 hPa 0,0 l/m 6,1 km/h (2 Bft) S 0,00 h 0,0 UV-I 0 W/m -0,4 C -0,7 C 10,0 km/h (2 Bft)
25.12.2017 22:00 22,4 C -0,3 C 61 % 97 % 1015,9 hPa 0,0 l/m 6,8 km/h (2 Bft) S 0,00 h 0,0 UV-I 0 W/m -0,7 C -1,4 C 11,1 km/h (2 Bft)
25.12.2017 23:00 22,5 C -0,2 C 62 % 97 % 1015,4 hPa 0,0 l/m 2,4 km/h (1 Bft) S 0,00 h 0,0 UV-I 0 W/m -0,6 C -0,2 C 4,9 km/h (1 Bft)
26.12.2017 00:00 22,5 C -0,3 C 62 % 97 % 1014,9 hPa 0,0 l/m 3,4 km/h (1 Bft) S 0,00 h 0,0 UV-I 0 W/m -0,7 C -0,3 C 6,4 km/h (2 Bft)
26.12.2017 01:00 22,3 C -0,4 C 63 % 97 % 1014,3 hPa 0,0 l/m 3,0 km/h (1 Bft) S-SO 0,00 h 0,0 UV-I 0 W/m -0,8 C -0,5 C 5,8 km/h (2 Bft)
26.12.2017 02:00 22,3 C -0,6 C 64 % 97 % 1013,9 hPa 0,0 l/m 4,6 km/h (1 Bft) S 0,00 h 0,0 UV-I 0 W/m -1,0 C -0,8 C 8,0 km/h (2 Bft)
26.12.2017 03:00 22,2 C -0,7 C 65 % 97 % 1013,4 hPa 0,0 l/m 3,3 km/h (1 Bft) S 0,00 h 0,0 UV-I 0 W/m -1,2 C -0,9 C 6,4 km/h (2 Bft)
26.12.2017 04:00 22,2 C -1,0 C 66 % 97 % 1012,7 hPa 0,0 l/m 2,9 km/h (1 Bft) S-SO 0,00 h 0,0 UV-I 0 W/m -1,4 C -1,0 C 5,6 km/h (1 Bft)
26.12.2017 05:00 22,1 C -1,3 C 66 % 97 % 1012,1 hPa 0,0 l/m 3,0 km/h (1 Bft) S-SW 0,00 h 0,0 UV-I 0 W/m -1,7 C -1,3 C 6,2 km/h (2 Bft)
26.12.2017 06:00 22,1 C -1,3 C 67 % 97 % 1011,6 hPa 0,0 l/m 2,3 km/h (1 Bft) S 0,00 h 0,0 UV-I 0 W/m -1,7 C -1,3 C 4,8 km/h (1 Bft)
26.12.2017 07:00 22,2 C -1,5 C 66 % 97 % 1011,1 hPa 0,0 l/m 3,2 km/h (1 Bft) S 0,00 h 0,0 UV-I 0 W/m -1,9 C -1,5 C 6,3 km/h (2 Bft)
26.12.2017 08:00 22,4 C -1,5 C 65 % 97 % 1010,5 hPa 0,0 l/m 0,4 km/h (0 Bft) W-SW 0,00 h 0,0 UV-I 11 W/m -1,9 C -1,5 C 1,2 km/h (1 Bft)
26.12.2017 09:00 22,6 C -1,3 C 64 % 97 % 1009,9 hPa 0,0 l/m 0,0 km/h (0 Bft) N 0,00 h 0,0 UV-I 30 W/m -1,8 C -1,3 C 0,0 km/h (0 Bft)
26.12.2017 10:00 23,0 C -0,0 C 63 % 96 % 1009,5 hPa 0,0 l/m 0,0 km/h (0 Bft) N 0,45 h 0,6 UV-I 142 W/m -0,6 C -0,0 C 0,0 km/h (0 Bft)
26.12.2017 11:00 23,7 C 2,1 C 57 % 90 % 1008,6 hPa 0,0 l/m 2,7 km/h (1 Bft) S-SO 0,90 h 0,8 UV-I 230 W/m 0,6 C 1,9 C 5,4 km/h (1 Bft)
26.12.2017 12:00 24,4 C 4,5 C 52 % 82 % 1007,4 hPa 0,0 l/m 2,3 km/h (1 Bft) S 1,00 h 0,8 UV-I 268 W/m 1,7 C 4,0 C 4,4 km/h (1 Bft)
26.12.2017 13:00 24,0 C 4,4 C 43 % 82 % 1006,6 hPa 0,0 l/m 8,7 km/h (2 Bft) S 0,45 h 0,6 UV-I 158 W/m 1,6 C 2,3 C 14,3 km/h (3 Bft)
26.12.2017 14:00 23,7 C 4,9 C 48 % 82 % 1005,8 hPa 0,0 l/m 11,8 km/h (2 Bft) S 0,12 h 0,5 UV-I 98 W/m 2,0 C 0,9 C 17,8 km/h (3 Bft)
26.12.2017 15:00 23,4 C 4,6 C 48 % 83 % 1005,8 hPa 0,0 l/m 10,4 km/h (2 Bft) S 0,00 h 0,0 UV-I 29 W/m 2,0 C 1,4 C 15,9 km/h (3 Bft)
26.12.2017 16:00 23,1 C 4,3 C 52 % 85 % 1006,6 hPa 0,0 l/m 7,1 km/h (2 Bft) S 0,00 h 0,0 UV-I 6 W/m 2,1 C 3,2 C 12,4 km/h (3 Bft)
26.12.2017 17:00 22,9 C 3,7 C 56 % 90 % 1007,3 hPa 0,2 l/m 4,8 km/h (1 Bft) W-SW 0,00 h 0,0 UV-I 0 W/m 2,2 C 3,0 C 8,7 km/h (2 Bft)
26.12.2017 18:00 22,9 C 4,0 C 59 % 87 % 1007,4 hPa 0,0 l/m 9,6 km/h (2 Bft) W-SW 0,00 h 0,0 UV-I 0 W/m 2,1 C 1,3 C 15,5 km/h (3 Bft)
26.12.2017 19:00 22,9 C 3,2 C 60 % 85 % 1007,2 hPa 0,0 l/m 2,5 km/h (1 Bft) S-SW 0,00 h 0,0 UV-I 0 W/m 1,0 C 3,1 C 5,8 km/h (2 Bft)
26.12.2017 20:00 22,8 C 2,1 C 60 % 87 % 1006,7 hPa 0,0 l/m 2,3 km/h (1 Bft) S 0,00 h 0,0 UV-I 0 W/m 0,1 C 2,1 C 4,5 km/h (1 Bft)
26.12.2017 21:00 22,7 C 1,2 C 60 % 90 % 1006,2 hPa 0,0 l/m 0,6 km/h (0 Bft) S 0,00 h 0,0 UV-I 0 W/m -0,3 C 1,2 C 2,0 km/h (1 Bft)
26.12.2017 22:00 22,7 C 1,0 C 61 % 91 % 1005,4 hPa 0,0 l/m 0,2 km/h (0 Bft) SO 0,00 h 0,0 UV-I 0 W/m -0,4 C 1,0 C 0,6 km/h (0 Bft)
26.12.2017 23:00 22,7 C 0,8 C 62 % 92 % 1004,5 hPa 0,0 l/m 0,6 km/h (0 Bft) O 0,00 h 0,0 UV-I 0 W/m -0,3 C 0,8 C 1,0 km/h (0 Bft)
27.12.2017 00:00 22,6 C 0,6 C 62 % 92 % 1003,4 hPa 0,0 l/m 0,0 km/h (0 Bft) O-SO 0,00 h 0,0 UV-I 0 W/m -0,6 C 0,6 C 0,0 km/h (0 Bft)
27.12.2017 01:00 22,4 C 0,1 C 63 % 93 % 1002,1 hPa 0,0 l/m 0,3 km/h (0 Bft) O 0,00 h 0,0 UV-I 0 W/m -0,9 C 0,1 C 0,7 km/h (0 Bft)
27.12.2017 02:00 22,3 C -0,8 C 63 % 93 % 1001,0 hPa 0,0 l/m 0,0 km/h (0 Bft) N 0,00 h 0,0 UV-I 0 W/m -1,9 C -0,8 C 0,0 km/h (0 Bft)
27.12.2017 03:00 22,2 C -1,8 C 64 % 93 % 999,8 hPa 0,0 l/m 0,1 km/h (0 Bft) O-NO 0,00 h 0,0 UV-I 0 W/m -2,8 C -1,8 C 0,3 km/h (0 Bft)
27.12.2017 04:00 22,1 C -2,2 C 64 % 94 % 998,7 hPa 0,0 l/m 0,8 km/h (0 Bft) O-NO 0,00 h 0,0 UV-I 0 W/m -3,1 C -2,2 C 1,9 km/h (1 Bft)
27.12.2017 05:00 22,1 C -1,0 C 65 % 95 % 997,2 hPa 0,0 l/m 1,8 km/h (1 Bft) NO 0,00 h 0,0 UV-I 0 W/m -1,7 C -1,1 C 3,2 km/h (1 Bft)
27.12.2017 06:00 22,1 C -1,3 C 65 % 95 % 996,0 hPa 0,0 l/m 0,5 km/h (0 Bft) O-NO 0,00 h 0,0 UV-I 0 W/m -2,0 C -1,3 C 1,5 km/h (1 Bft)
27.12.2017 07:00 22,2 C -1,0 C 64 % 96 % 994,7 hPa 0,0 l/m 0,9 km/h (0 Bft) O-NO 0,00 h 0,0 UV-I 0 W/m -1,6 C -1,0 C 2,3 km/h (1 Bft)
27.12.2017 08:00 22,4 C 0,1 C 64 % 96 % 993,8 hPa 0,0 l/m 3,9 km/h (1 Bft) O-NO 0,00 h 0,0 UV-I 14 W/m -0,4 C 0,1 C 8,9 km/h (2 Bft)
27.12.2017 09:00 22,6 C 1,0 C 63 % 93 % 993,0 hPa 0,0 l/m 2,3 km/h (1 Bft) O 0,00 h 0,0 UV-I 44 W/m 0,1 C 1,0 C 5,7 km/h (1 Bft)
27.12.2017 10:00 22,7 C 1,8 C 63 % 89 % 992,2 hPa 0,0 l/m 3,9 km/h (1 Bft) O-NO 0,00 h 0,5 UV-I 72 W/m 0,2 C 1,6 C 9,0 km/h (2 Bft)
27.12.2017 11:00 22,7 C 2,0 C 63 % 88 % 991,2 hPa 0,0 l/m 2,5 km/h (1 Bft) O-NO 0,03 h 0,5 UV-I 92 W/m 0,2 C 2,0 C 6,7 km/h (2 Bft)
27.12.2017 12:00 23,0 C 2,7 C 63 % 86 % 990,3 hPa 0,0 l/m 3,1 km/h (1 Bft) O-NO 0,52 h 0,7 UV-I 199 W/m 0,7 C 2,6 C 7,6 km/h (2 Bft)
27.12.2017 13:00 23,8 C 3,7 C 59 % 82 % 989,1 hPa 0,0 l/m 2,0 km/h (1 Bft) O 0,88 h 0,6 UV-I 207 W/m 1,0 C 3,7 C 5,1 km/h (1 Bft)
27.12.2017 14:00 16,7 C 2,5 C 44 % 84 % 988,9 hPa 0,0 l/m 2,3 km/h (1 Bft) O-NO 0,07 h 0,5 UV-I 63 W/m 0,1 C 2,5 C 5,6 km/h (1 Bft)
27.12.2017 15:00 11,4 C 1,3 C 52 % 88 % 988,9 hPa 0,0 l/m 1,1 km/h (1 Bft) O-NO 0,00 h 0,0 UV-I 20 W/m -0,5 C 1,3 C 2,9 km/h (1 Bft)
27.12.2017 16:00 11,4 C 0,7 C 54 % 89 % 988,8 hPa 0,0 l/m 3,9 km/h (1 Bft) O-NO 0,00 h 0,0 UV-I 5 W/m -0,8 C 0,7 C 7,4 km/h (2 Bft)
27.12.2017 17:00 12,5 C 0,3 C 59 % 91 % 989,0 hPa 0,0 l/m 2,6 km/h (1 Bft) O-NO 0,00 h 0,0 UV-I 0 W/m -1,0 C 0,3 C 6,3 km/h (2 Bft)
27.12.2017 18:00 19,5 C 0,2 C 61 % 91 % 988,9 hPa 0,0 l/m 2,3 km/h (1 Bft) O-NO 0,00 h 0,0 UV-I 0 W/m -1,1 C 0,2 C 5,2 km/h (1 Bft)
27.12.2017 19:00 21,0 C 0,2 C 59 % 92 % 988,6 hPa 0,0 l/m 1,0 km/h (0 Bft) N 0,00 h 0,0 UV-I 0 W/m -0,9 C 0,2 C 3,0 km/h (1 Bft)
27.12.2017 20:00 21,3 C 0,2 C 58 % 92 % 988,4 hPa 0,0 l/m 0,4 km/h (0 Bft) N 0,00 h 0,0 UV-I 0 W/m -0,9 C 0,2 C 1,2 km/h (1 Bft)
27.12.2017 21:00 21,7 C 0,2 C 58 % 93 % 988,4 hPa 0,0 l/m 0,3 km/h (0 Bft) N 0,00 h 0,0 UV-I 0 W/m -0,8 C 0,2 C 0,8 km/h (0 Bft)
27.12.2017 22:00 22,1 C 0,3 C 58 % 93 % 989,0 hPa 0,0 l/m 0,0 km/h (0 Bft) N 0,00 h 0,0 UV-I 0 W/m -0,7 C 0,3 C 0,1 km/h (0 Bft)
27.12.2017 23:00 22,2 C 0,2 C 59 % 94 % 989,2 hPa 0,6 l/m 0,0 km/h (0 Bft) N 0,00 h 0,0 UV-I 0 W/m -0,7 C 0,2 C 0,0 km/h (0 Bft)
28.12.2017 00:00 22,3 C 0,1 C 59 % 94 % 989,3 hPa 0,6 l/m 0,0 km/h (0 Bft) N 0,00 h 0,0 UV-I 0 W/m -0,7 C 0,1 C 0,0 km/h (0 Bft)
28.12.2017 01:00 22,1 C 0,0 C 60 % 95 % 989,4 hPa 0,6 l/m 0,0 km/h (0 Bft) N 0,00 h 0,0 UV-I 0 W/m -0,7 C 0,0 C 0,0 km/h (0 Bft)
28.12.2017 02:00 22,0 C -0,1 C 60 % 95 % 989,6 hPa 0,2 l/m 0,0 km/h (0 Bft) N 0,00 h 0,0 UV-I 0 W/m -0,8 C -0,1 C 0,0 km/h (0 Bft)
28.12.2017 03:00 22,0 C -0,1 C 62 % 96 % 989,5 hPa 0,4 l/m 0,0 km/h (0 Bft) N 0,00 h 0,0 UV-I 0 W/m -0,7 C -0,1 C 0,0 km/h (0 Bft)
28.12.2017 04:00 21,9 C 0,0 C 62 % 96 % 989,7 hPa 0,6 l/m 0,0 km/h (0 Bft) N 0,00 h 0,0 UV-I 0 W/m -0,5 C 0,0 C 0,0 km/h (0 Bft)
28.12.2017 05:00 21,9 C 0,3 C 62 % 96 % 990,4 hPa 1,0 l/m 0,0 km/h (0 Bft) N 0,00 h 0,0 UV-I 0 W/m -0,3 C 0,3 C 0,0 km/h (0 Bft)
28.12.2017 06:00 21,9 C 0,5 C 62 % 97 % 990,7 hPa 0,8 l/m 0,0 km/h (0 Bft) N 0,00 h 0,0 UV-I 0 W/m 0,1 C 0,5 C 0,0 km/h (0 Bft)
28.12.2017 07:00 22,1 C 0,6 C 62 % 97 % 991,3 hPa 0,4 l/m 0,0 km/h (0 Bft) N 0,00 h 0,0 UV-I 0 W/m 0,2 C 0,6 C 0,0 km/h (0 Bft)
28.12.2017 08:00 22,2 C 0,6 C 61 % 97 % 992,0 hPa 0,8 l/m 0,0 km/h (0 Bft) N 0,00 h 0,0 UV-I 0 W/m 0,2 C 0,6 C 0,0 km/h (0 Bft)
28.12.2017 09:00 22,4 C 0,7 C 61 % 97 % 992,8 hPa 0,8 l/m 0,1 km/h (0 Bft) W-SW 0,00 h 0,0 UV-I 6 W/m 0,3 C 0,7 C 0,6 km/h (0 Bft)
28.12.2017 10:00 22,4 C 0,8 C 62 % 97 % 993,7 hPa 0,4 l/m 0,0 km/h (0 Bft) N 0,00 h 0,0 UV-I 28 W/m 0,4 C 0,8 C 0,1 km/h (0 Bft)
28.12.2017 11:00 22,6 C 0,9 C 62 % 97 % 994,5 hPa 0,4 l/m 2,6 km/h (1 Bft) W 0,00 h 0,0 UV-I 59 W/m 0,5 C 0,4 C 5,0 km/h (1 Bft)
28.12.2017 12:00 22,8 C 0,9 C 63 % 97 % 995,6 hPa 0,0 l/m 6,0 km/h (2 Bft) W-NW 0,00 h 0,5 UV-I 72 W/m 0,5 C -0,1 C 9,8 km/h (2 Bft)
28.12.2017 13:00 22,9 C 1,2 C 62 % 96 % 996,4 hPa 0,0 l/m 5,2 km/h (1 Bft) W-NW 0,00 h 0,5 UV-I 93 W/m 0,6 C 0,6 C 9,2 km/h (2 Bft)
28.12.2017 14:00 23,0 C 1,7 C 62 % 94 % 997,3 hPa 0,0 l/m 5,2 km/h (1 Bft) W-NW 0,10 h 0,5 UV-I 87 W/m 0,8 C 1,2 C 9,2 km/h (2 Bft)
28.12.2017 15:00 22,9 C 1,2 C 61 % 93 % 998,9 hPa 0,0 l/m 1,4 km/h (1 Bft) W 0,00 h 0,0 UV-I 21 W/m 0,2 C 1,2 C 3,5 km/h (1 Bft)
28.12.2017 16:00 22,8 C 0,8 C 62 % 93 % 1000,0 hPa 0,0 l/m 1,7 km/h (1 Bft) W 0,00 h 0,0 UV-I 6 W/m -0,2 C 0,8 C 3,9 km/h (1 Bft)
28.12.2017 17:00 22,7 C 0,6 C 62 % 94 % 1000,9 hPa 0,0 l/m 4,9 km/h (1 Bft) W 0,00 h 0,0 UV-I 0 W/m -0,3 C -0,2 C 8,7 km/h (2 Bft)
28.12.2017 18:00 22,7 C 0,4 C 63 % 94 % 1001,8 hPa 0,0 l/m 1,6 km/h (1 Bft) W 0,00 h 0,0 UV-I 0 W/m -0,5 C 0,4 C 4,4 km/h (1 Bft)
28.12.2017 19:00 22,6 C 0,1 C 64 % 93 % 1002,8 hPa 0,0 l/m 2,1 km/h (1 Bft) W-SW 0,00 h 0,0 UV-I 0 W/m -0,9 C 0,1 C 4,4 km/h (1 Bft)
28.12.2017 20:00 22,6 C -0,1 C 64 % 93 % 1003,7 hPa 0,0 l/m 3,3 km/h (1 Bft) W-SW 0,00 h 0,0 UV-I 0 W/m -1,1 C -0,1 C 6,9 km/h (2 Bft)
28.12.2017 21:00 22,5 C -0,2 C 64 % 91 % 1004,7 hPa 0,0 l/m 3,5 km/h (1 Bft) W-SW 0,00 h 0,0 UV-I 0 W/m -1,4 C -0,3 C 7,0 km/h (2 Bft)
28.12.2017 22:00 22,5 C -0,5 C 65 % 88 % 1005,8 hPa 0,2 l/m 5,8 km/h (2 Bft) W 0,00 h 0,0 UV-I 0 W/m -2,3 C -1,3 C 10,7 km/h (2 Bft)
28.12.2017 23:00 22,6 C -0,9 C 65 % 86 % 1006,8 hPa 0,0 l/m 5,4 km/h (1 Bft) W 0,00 h 0,0 UV-I 0 W/m -2,9 C -1,5 C 9,4 km/h (2 Bft)
29.12.2017 00:00 22,5 C -1,2 C 65 % 85 % 1007,2 hPa 0,0 l/m 7,2 km/h (2 Bft) W-SW 0,00 h 0,0 UV-I 0 W/m -3,4 C -2,4 C 11,9 km/h (2 Bft)
29.12.2017 01:00 22,3 C -1,5 C 65 % 88 % 1008,0 hPa 0,0 l/m 8,6 km/h (2 Bft) W-SW 0,00 h 0,0 UV-I 0 W/m -3,2 C -3,9 C 13,6 km/h (3 Bft)
29.12.2017 02:00 22,2 C -1,3 C 65 % 89 % 1008,7 hPa 0,0 l/m 6,8 km/h (2 Bft) W-SW 0,00 h 0,0 UV-I 0 W/m -2,9 C -2,4 C 11,5 km/h (2 Bft)
29.12.2017 03:00 22,2 C -1,4 C 65 % 91 % 1009,2 hPa 0,0 l/m 8,8 km/h (2 Bft) SW 0,00 h 0,0 UV-I 0 W/m -2,6 C -4,0 C 13,9 km/h (3 Bft)
29.12.2017 04:00 22,1 C -1,4 C 65 % 92 % 1009,7 hPa 0,0 l/m 5,6 km/h (1 Bft) SW 0,00 h 0,0 UV-I 0 W/m -2,5 C -1,9 C 9,9 km/h (2 Bft)
29.12.2017 05:00 22,1 C -1,4 C 65 % 93 % 1010,1 hPa 0,0 l/m 4,6 km/h (1 Bft) SW 0,00 h 0,0 UV-I 0 W/m -2,4 C -1,5 C 8,2 km/h (2 Bft)
29.12.2017 06:00 22,1 C -1,3 C 66 % 93 % 1010,5 hPa 0,0 l/m 4,9 km/h (1 Bft) SW 0,00 h 0,0 UV-I 0 W/m -2,3 C -1,6 C 8,5 km/h (2 Bft)
29.12.2017 07:00 22,2 C -1,3 C 65 % 93 % 1010,8 hPa 0,0 l/m 4,8 km/h (1 Bft) S-SW 0,00 h 0,0 UV-I 0 W/m -2,3 C -1,6 C 8,7 km/h (2 Bft)
29.12.2017 08:00 22,3 C -1,2 C 64 % 93 % 1011,2 hPa 0,0 l/m 6,3 km/h (2 Bft) SW 0,00 h 0,0 UV-I 9 W/m -2,2 C -1,9 C 10,6 km/h (2 Bft)
29.12.2017 09:00 22,4 C -1,1 C 65 % 93 % 1011,7 hPa 0,0 l/m 7,3 km/h (2 Bft) SW 0,00 h 0,0 UV-I 27 W/m -2,2 C -2,7 C 12,7 km/h (3 Bft)
29.12.2017 10:00 22,5 C -0,9 C 64 % 90 % 1011,9 hPa 0,0 l/m 8,2 km/h (2 Bft) W-SW 0,00 h 0,5 UV-I 60 W/m -2,3 C -3,1 C 14,1 km/h (3 Bft)
29.12.2017 11:00 22,5 C -0,6 C 61 % 89 % 1011,6 hPa 0,0 l/m 8,0 km/h (2 Bft) SW 0,13 h 0,6 UV-I 113 W/m -2,3 C -2,5 C 13,7 km/h (3 Bft)
29.12.2017 12:00 22,9 C 0,3 C 52 % 85 % 1010,7 hPa 0,0 l/m 6,2 km/h (2 Bft) SW 0,88 h 0,8 UV-I 248 W/m -1,9 C -1,0 C 11,6 km/h (2 Bft)
29.12.2017 13:00 23,3 C 0,3 C 50 % 83 % 1010,4 hPa 0,0 l/m 5,1 km/h (1 Bft) SW 0,25 h 0,7 UV-I 142 W/m -2,2 C -0,3 C 10,0 km/h (2 Bft)
29.12.2017 14:00 23,1 C 0,2 C 53 % 83 % 1010,2 hPa 0,0 l/m 4,3 km/h (1 Bft) S-SW 0,25 h 0,5 UV-I 119 W/m -2,4 C -0,1 C 8,1 km/h (2 Bft)
29.12.2017 15:00 23,0 C -0,3 C 54 % 84 % 1010,1 hPa 0,0 l/m 4,8 km/h (1 Bft) S 0,00 h 0,0 UV-I 45 W/m -2,7 C -0,4 C 8,4 km/h (2 Bft)
29.12.2017 16:00 22,7 C -1,5 C 54 % 88 % 1009,6 hPa 0,0 l/m 6,7 km/h (2 Bft) SO 0,00 h 0,0 UV-I 5 W/m -3,3 C -2,1 C 9,7 km/h (2 Bft)
29.12.2017 17:00 22,3 C -2,3 C 56 % 89 % 1008,9 hPa 0,0 l/m 6,1 km/h (2 Bft) S-SO 0,00 h 0,0 UV-I 0 W/m -3,8 C -3,0 C 8,8 km/h (2 Bft)
29.12.2017 18:00 22,2 C -2,2 C 56 % 89 % 1008,0 hPa 0,0 l/m 10,4 km/h (2 Bft) S-SO 0,00 h 0,0 UV-I 0 W/m -3,8 C -6,1 C 15,2 km/h (3 Bft)
29.12.2017 19:00 22,1 C -2,1 C 56 % 87 % 1007,3 hPa 0,0 l/m 7,7 km/h (2 Bft) S-SO 0,00 h 0,0 UV-I 0 W/m -3,9 C -4,4 C 10,9 km/h (2 Bft)
29.12.2017 20:00 22,2 C -1,9 C 58 % 84 % 1006,7 hPa 0,0 l/m 0,0 km/h (0 Bft) N 0,00 h 0,0 UV-I 0 W/m -4,2 C -1,9 C 0,0 km/h (0 Bft)
29.12.2017 21:00 22,2 C -1,7 C 58 % 81 % 1006,0 hPa 0,0 l/m 0,0 km/h (0 Bft) N 0,00 h 0,0 UV-I 0 W/m -4,5 C -1,7 C 0,0 km/h (0 Bft)
29.12.2017 22:00 22,3 C -1,6 C 58 % 82 % 1005,8 hPa 0,0 l/m 1,5 km/h (1 Bft) S-SO 0,00 h 0,0 UV-I 0 W/m -4,3 C -2,0 C 2,0 km/h (1 Bft)
29.12.2017 23:00 22,4 C -1,7 C 59 % 87 % 1006,1 hPa 0,0 l/m 7,2 km/h (2 Bft) S-SO 0,00 h 0,0 UV-I 0 W/m -3,6 C -3,1 C 11,1 km/h (2 Bft)
30.12.2017 00:00 22,3 C -1,8 C 60 % 91 % 1006,4 hPa 0,0 l/m 6,6 km/h (2 Bft) S 0,00 h 0,0 UV-I 0 W/m -3,0 C -2,6 C 9,9 km/h (2 Bft)
30.12.2017 01:00 22,1 C -1,8 C 60 % 93 % 1006,9 hPa 0,0 l/m 3,9 km/h (1 Bft) S 0,00 h 0,0 UV-I 0 W/m -2,7 C -2,0 C 6,2 km/h (2 Bft)
30.12.2017 02:00 22,1 C -1,5 C 61 % 93 % 1007,6 hPa 0,0 l/m 5,4 km/h (1 Bft) S-SW 0,00 h 0,0 UV-I 0 W/m -2,5 C -2,1 C 8,8 km/h (2 Bft)
30.12.2017 03:00 22,1 C -1,2 C 61 % 94 % 1008,1 hPa 0,0 l/m 5,3 km/h (1 Bft) S-SW 0,00 h 0,0 UV-I 0 W/m -2,1 C -1,6 C 9,1 km/h (2 Bft)
30.12.2017 04:00 22,1 C -1,0 C 62 % 94 % 1008,4 hPa 0,0 l/m 3,8 km/h (1 Bft) S-SW 0,00 h 0,0 UV-I 0 W/m -1,8 C -1,0 C 6,5 km/h (2 Bft)
30.12.2017 05:00 22,1 C -0,7 C 62 % 95 % 1008,6 hPa 0,0 l/m 3,7 km/h (1 Bft) S-SW 0,00 h 0,0 UV-I 0 W/m -1,4 C -0,8 C 6,8 km/h (2 Bft)
30.12.2017 06:00 22,1 C -0,3 C 62 % 96 % 1008,9 hPa 0,0 l/m 4,9 km/h (1 Bft) S 0,00 h 0,0 UV-I 0 W/m -0,8 C -0,4 C 8,0 km/h (2 Bft)
30.12.2017 07:00 22,2 C 0,3 C 62 % 96 % 1009,0 hPa 0,0 l/m 2,6 km/h (1 Bft) S 0,00 h 0,0 UV-I 0 W/m -0,2 C 0,2 C 4,7 km/h (1 Bft)
30.12.2017 08:00 22,4 C 0,9 C 61 % 97 % 1009,1 hPa 0,0 l/m 6,9 km/h (2 Bft) S 0,00 h 0,0 UV-I 11 W/m 0,4 C -0,1 C 11,5 km/h (2 Bft)
30.12.2017 09:00 22,5 C 1,3 C 61 % 96 % 1008,9 hPa 0,0 l/m 9,2 km/h (2 Bft) S 0,00 h 0,0 UV-I 48 W/m 0,7 C -1,3 C 14,5 km/h (3 Bft)
30.12.2017 10:00 22,7 C 1,6 C 60 % 94 % 1008,0 hPa 0,0 l/m 10,1 km/h (2 Bft) S-SO 0,00 h 0,5 UV-I 97 W/m 0,7 C -1,6 C 15,1 km/h (3 Bft)
30.12.2017 11:00 22,8 C 1,6 C 58 % 93 % 1007,1 hPa 0,0 l/m 11,0 km/h (2 Bft) S-SO 0,00 h 0,5 UV-I 55 W/m 0,5 C -2,2 C 17,2 km/h (3 Bft)
30.12.2017 12:00 22,7 C 1,5 C 59 % 94 % 1006,0 hPa 0,0 l/m 9,7 km/h (2 Bft) S-SO 0,00 h 0,5 UV-I 81 W/m 0,6 C -1,5 C 14,5 km/h (3 Bft)
30.12.2017 13:00 22,8 C 1,6 C 60 % 95 % 1004,8 hPa 0,4 l/m 12,8 km/h (3 Bft) S-SO 0,00 h 0,5 UV-I 55 W/m 0,9 C -3,5 C 19,6 km/h (3 Bft)
30.12.2017 14:00 22,6 C 1,4 C 58 % 95 % 1004,4 hPa 0,4 l/m 11,6 km/h (2 Bft) S 0,00 h 0,0 UV-I 34 W/m 0,8 C -2,9 C 17,8 km/h (3 Bft)
30.12.2017 15:00 22,4 C 1,7 C 58 % 96 % 1004,8 hPa 0,2 l/m 8,6 km/h (2 Bft) S 0,00 h 0,0 UV-I 16 W/m 1,1 C -0,6 C 14,5 km/h (3 Bft)
30.12.2017 16:00 22,4 C 1,9 C 59 % 96 % 1005,4 hPa 0,0 l/m 5,1 km/h (1 Bft) S 0,00 h 0,0 UV-I 0 W/m 1,4 C 1,4 C 9,4 km/h (2 Bft)
30.12.2017 17:00 22,5 C 2,4 C 60 % 97 % 1005,9 hPa 0,0 l/m 2,7 km/h (1 Bft) S-SO 0,00 h 0,0 UV-I 0 W/m 2,0 C 2,4 C 5,3 km/h (1 Bft)
30.12.2017 18:00 22,7 C 2,9 C 62 % 97 % 1006,6 hPa 0,0 l/m 3,2 km/h (1 Bft) S-SW 0,00 h 0,0 UV-I 0 W/m 2,5 C 2,8 C 6,7 km/h (2 Bft)
30.12.2017 19:00 22,8 C 3,8 C 61 % 98 % 1007,1 hPa 0,0 l/m 2,2 km/h (1 Bft) S 0,00 h 0,0 UV-I 0 W/m 3,5 C 3,8 C 5,2 km/h (1 Bft)
30.12.2017 20:00 22,8 C 4,8 C 62 % 98 % 1007,3 hPa 0,0 l/m 3,5 km/h (1 Bft) S-SW 0,00 h 0,0 UV-I 0 W/m 4,5 C 4,8 C 8,0 km/h (2 Bft)
30.12.2017 21:00 22,9 C 5,1 C 62 % 98 % 1007,3 hPa 0,0 l/m 3,0 km/h (1 Bft) S-SW 0,00 h 0,0 UV-I 0 W/m 4,8 C 5,0 C 6,6 km/h (2 Bft)
30.12.2017 22:00 23,0 C 5,1 C 63 % 98 % 1007,4 hPa 0,0 l/m 3,4 km/h (1 Bft) S-SW 0,00 h 0,0 UV-I 0 W/m 4,8 C 5,0 C 7,2 km/h (2 Bft)
30.12.2017 23:00 23,0 C 5,5 C 63 % 98 % 1007,5 hPa 0,2 l/m 5,2 km/h (1 Bft) S 0,00 h 0,0 UV-I 0 W/m 5,2 C 4,9 C 8,9 km/h (2 Bft)
31.12.2017 00:00 22,9 C 5,4 C 64 % 98 % 1007,8 hPa 0,2 l/m 2,5 km/h (1 Bft) S-SW 0,00 h 0,0 UV-I 0 W/m 5,1 C 5,3 C 5,0 km/h (1 Bft)
31.12.2017 01:00 22,7 C 5,7 C 64 % 98 % 1008,2 hPa 0,6 l/m 2,1 km/h (1 Bft) S-SW 0,00 h 0,0 UV-I 0 W/m 5,4 C 5,7 C 5,5 km/h (1 Bft)
31.12.2017 02:00 22,6 C 6,1 C 64 % 98 % 1008,7 hPa 0,0 l/m 1,6 km/h (1 Bft) S-SW 0,00 h 0,0 UV-I 0 W/m 5,8 C 6,1 C 4,6 km/h (1 Bft)
31.12.2017 03:00 22,6 C 6,3 C 65 % 98 % 1009,1 hPa 0,4 l/m 1,3 km/h (1 Bft) S-SW 0,00 h 0,0 UV-I 0 W/m 6,0 C 6,3 C 3,9 km/h (1 Bft)
31.12.2017 04:00 22,6 C 6,8 C 65 % 98 % 1009,3 hPa 0,6 l/m 3,4 km/h (1 Bft) SW 0,00 h 0,0 UV-I 0 W/m 6,5 C 6,7 C 8,0 km/h (2 Bft)
31.12.2017 05:00 22,6 C 7,2 C 65 % 98 % 1009,3 hPa 0,4 l/m 5,3 km/h (1 Bft) SW 0,00 h 0,0 UV-I 0 W/m 6,9 C 6,8 C 10,1 km/h (2 Bft)
31.12.2017 06:00 22,7 C 7,2 C 65 % 98 % 1009,4 hPa 0,8 l/m 4,8 km/h (1 Bft) S 0,00 h 0,0 UV-I 0 W/m 6,9 C 6,8 C 9,2 km/h (2 Bft)
31.12.2017 07:00 22,8 C 8,0 C 64 % 98 % 1009,7 hPa 1,0 l/m 7,8 km/h (2 Bft) SW 0,00 h 0,0 UV-I 0 W/m 7,7 C 6,8 C 13,9 km/h (3 Bft)
31.12.2017 08:00 22,9 C 8,6 C 64 % 98 % 1010,7 hPa 0,2 l/m 7,3 km/h (2 Bft) SW 0,00 h 0,0 UV-I 5 W/m 8,3 C 7,5 C 13,6 km/h (3 Bft)
31.12.2017 09:00 23,0 C 8,8 C 64 % 97 % 1011,3 hPa 0,2 l/m 9,3 km/h (2 Bft) SW 0,00 h 0,0 UV-I 12 W/m 8,4 C 6,8 C 16,7 km/h (3 Bft)
31.12.2017 10:00 23,1 C 9,2 C 63 % 93 % 1011,0 hPa 0,0 l/m 14,2 km/h (3 Bft) W-SW 0,00 h 0,0 UV-I 43 W/m 8,2 C 4,8 C 24,6 km/h (4 Bft)
31.12.2017 11:00 23,2 C 9,3 C 63 % 91 % 1011,0 hPa 0,0 l/m 4,1 km/h (1 Bft) S 0,00 h 0,0 UV-I 30 W/m 7,9 C 9,1 C 8,5 km/h (2 Bft)
31.12.2017 12:00 23,2 C 9,4 C 62 % 93 % 1010,3 hPa 0,0 l/m 8,0 km/h (2 Bft) S 0,22 h 0,6 UV-I 109 W/m 8,2 C 7,9 C 13,8 km/h (3 Bft)
31.12.2017 13:00 23,4 C 9,9 C 62 % 89 % 1009,6 hPa 0,0 l/m 9,9 km/h (2 Bft) S 0,20 h 0,6 UV-I 131 W/m 8,3 C 7,7 C 16,9 km/h (3 Bft)
31.12.2017 14:00 23,5 C 10,6 C 61 % 85 % 1009,1 hPa 0,0 l/m 7,6 km/h (2 Bft) S-SW 0,60 h 0,6 UV-I 170 W/m 8,3 C 9,4 C 14,4 km/h (3 Bft)
31.12.2017 15:00 23,5 C 10,2 C 61 % 85 % 1008,8 hPa 0,0 l/m 8,0 km/h (2 Bft) S-SW 0,00 h 0,0 UV-I 45 W/m 7,7 C 8,8 C 14,3 km/h (3 Bft)
31.12.2017 16:00 23,3 C 9,5 C 61 % 87 % 1008,5 hPa 0,0 l/m 7,8 km/h (2 Bft) S 0,00 h 0,0 UV-I 7 W/m 7,4 C 8,3 C 12,9 km/h (3 Bft)
31.12.2017 17:00 23,2 C 8,8 C 62 % 88 % 1008,2 hPa 0,0 l/m 8,9 km/h (2 Bft) S 0,00 h 0,0 UV-I 0 W/m 7,0 C 7,1 C 14,1 km/h (3 Bft)
31.12.2017 18:00 23,1 C 8,4 C 63 % 88 % 1007,7 hPa 0,0 l/m 6,7 km/h (2 Bft) S 0,00 h 0,0 UV-I 0 W/m 6,5 C 7,5 C 10,8 km/h (2 Bft)
31.12.2017 19:00 23,1 C 8,1 C 63 % 88 % 1007,2 hPa 0,0 l/m 6,7 km/h (2 Bft) S-SO 0,00 h 0,0 UV-I 0 W/m 6,2 C 7,3 C 11,1 km/h (2 Bft)
31.12.2017 20:00 23,2 C 7,7 C 67 % 88 % 1006,8 hPa 0,0 l/m 1,1 km/h (1 Bft) S 0,00 h 0,0 UV-I 0 W/m 5,8 C 7,7 C 3,3 km/h (1 Bft)
31.12.2017 21:00 23,2 C 7,2 C 66 % 88 % 1006,2 hPa 0,0 l/m 3,4 km/h (1 Bft) S 0,00 h 0,0 UV-I 0 W/m 5,3 C 7,2 C 7,0 km/h (2 Bft)
31.12.2017 22:00 23,1 C 6,9 C 67 % 88 % 1006,0 hPa 0,0 l/m 0,7 km/h (0 Bft) S 0,00 h 0,0 UV-I 0 W/m 5,0 C 6,9 C 2,0 km/h (1 Bft)
31.12.2017 23:00 23,1 C 6,5 C 67 % 88 % 1005,7 hPa 0,0 l/m 0,0 km/h (0 Bft) N 0,00 h 0,0 UV-I 0 W/m 4,6 C 6,5 C 0,0 km/h (0 Bft)
Min-Datum _ 27.12.17 29.12.17 27.12.17 26.12.17 27.12.17 - 25.12.17 - - - - 29.12.17 29.12.17 25.12.17
_ Min-Zeit 15:43 17:40 14:03 12:37 20:49 - 00:20 - - - - 22:06 18:37 01:06
Minimum _ 10,6 C -2,5 C 34 % 79 % 988,1 hPa - 0,0 km/h (0 Bft) - - - - -4,8 C -11,3 C 0,0 km/h (0 Bft)
Max-Datum _ 26.12.17 31.12.17 27.12.17 30.12.17 25.12.17 28.12.17 31.12.17 - 31.12.17 29.12.17 29.12.17 31.12.17 31.12.17 31.12.17
_ Max-Zeit 12:29 14:16 17:37 19:15 00:00 05:06 10:29 - 14:01 12:00 12:11 14:12 14:16 10:36
Maximum _ 24,6 C 10,9 C 71 % 98 % 1024,8 hPa 1,0 l/m 22,5 km/h
W-SW (4 Bft)
- 0,03 h 1,0 UV-I 422 W/m 8,7 C 10,9 C 35,4 km/h
SW (5 Bft)
Durchschnitt _ 22,3 C 1,8 C 61 % 93 % 1006,3 hPa #13,6 l/m 4,3 km/h (1 Bft) S #7:03 h 0,6 UV-I 66 W/m 0,7 C 1,1 C 7,7 km/h (2 Bft)